GEFSCGP_850_meantemp_228.txt.gz
Temperature
10 9 9 10 11 12 13 13 13 14 14 13 13 13 13 14 14 14 14 14 14 13 13 13 12 12 11 11 11 11 11 11 11 11 11 11 11 11 11 11 11 11 11 10
9 9 11 12 12 12 12 12 12 13 13 13 12 12 13 14 13 14 14 14 14 13 13 12 12 11 11 11 11 11 11 11 11 11 11 11 10 10 10 10 10 10 10 10
9 10 11 11 11 11 11 11 11 12 12 12 12 11 13 13 14 14 14 14 13 13 12 12 11 11 11 11 11 11 11 11 10 10 10 10 10 10 10 10 10 10 10 10
9 10 10 10 10 10 10 11 12 12 10 10 11 9 12 13 13 13 13 13 13 12 12 11 11 11 10 10 10 10 10 10 10 10 10 10 10 10 10 10 10 10 9 9
8 9 9 9 10 10 10 11 11 11 10 9 10 9 10 13 12 12 12 12 12 12 11 11 11 10 10 10 10 10 10 10 10 10 10 10 10 10 10 9 9 9 9 9
8 9 9 9 10 10 10 10 10 10 9 8 10 9 10 11 12 12 12 12 12 11 11 11 10 10 10 10 9 9 9 9 9 9 9 9 9 9 9 9 9 9 9 9
7 8 8 8 8 9 9 8 7 7 7 8 11 10 10 11 12 12 11 11 11 11 10 10 10 9 9 9 9 9 9 9 9 9 9 9 9 9 9 9 9 9 9 9
5 6 7 7 7 7 7 8 7 7 8 8 10 9 9 10 11 11 11 10 10 10 10 9 9 9 9 8 8 8 8 8 8 8 9 9 9 9 9 9 9 9 9 9
4 5 7 7 7 7 7 7 8 8 8 8 8 9 9 10 9 9 9 9 9 9 9 9 9 8 8 8 8 8 8 8 8 8 8 8 8 8 8 8 8 8 8 8
4 4 5 6 7 7 7 7 6 6 7 7 8 9 8 8 8 8 8 8 8 8 8 8 8 8 7 7 7 7 7 7 7 7 8 8 8 8 8 8 8 8 8 8
4 3 4 5 5 5 5 6 6 6 7 7 7 7 9 8 8 7 7 7 7 7 7 7 7 7 7 6 6 6 6 6 6 7 7 7 7 7 7 7 7 8 8 8
3 3 2 4 5 6 5 5 5 5 5 6 6 6 8 7 7 7 6 7 7 6 6 6 6 6 6 6 6 6 6 6 6 6 6 6 6 6 6 6 7 7 7 7
2 2 1 3 3 4 4 4 5 5 4 5 5 5 6 6 5 6 6 6 5 5 5 5 5 5 5 5 5 5 5 5 5 5 6 6 6 6 6 6 6 6 6 6
3 1 1 1 2 2 2 3 4 3 3 3 4 5 4 4 4 4 4 4 4 4 4 4 4 4 4 4 4 4 5 5 5 5 5 5 5 5 5 5 5 5 5 6
2 0 1 2 2 3 2 2 3 3 3 3 4 4 4 3 3 3 3 3 3 3 3 3 3 3 3 3 3 4 4 4 4 4 5 5 5 5 5 5 5 5 5 5
1 -0 0 1 2 2 2 2 2 2 2 3 3 3 2 3 3 3 2 2 2 2 2 2 2 2 2 2 3 3 3 4 4 4 4 4 5 5 5 5 5 4 4 4
-1 -1 -1 -0 1 1 0 1 1 1 1 2 1 1 1 1 2 2 1 1 1 1 1 1 1 2 2 2 2 2 3 3 3 4 4 4 4 4 4 4 4 4 4 4
-1 -1 -1 -1 -0 -1 0 1 1 1 0 0 0 0 0 1 1 1 0 0 0 -0 0 0 1 1 1 1 2 2 2 2 3 3 3 3 4 4 4 4 4 4 4 4
-0 -1 -1 -1 -1 -0 0 -0 -0 -0 -1 -1 -1 -1 -1 -0 1 0 -0 -1 -1 -0 -0 -0 -0 0 1 1 1 1 2 2 2 2 3 3 3 3 3 3 3 3 3 3
-0 -1 -2 -2 -2 -2 -2 -1 -0 -0 -1 -2 -1 -1 -1 -1 -1 -1 -1 -1 -1 -1 -1 -1 -1 -0 0 0 1 1 1 1 1 2 2 2 2 2 2 2 2 2 2 2
-2 -2 -2 -2 -2 -2 -3 -2 -0 -2 -3 -3 -2 -2 -2 -2 -2 -2 -2 -2 -2 -2 -2 -1 -1 -1 -1 -0 -0 -0 -0 0 0 1 1 1 1 2 2 2 2 2 2 2
-4 -4 -3 -3 -3 -3 -3 -3 -3 -4 -3 -3 -3 -3 -3 -3 -2 -3 -3 -3 -3 -3 -2 -2 -2 -2 -1 -1 -1 -1 -1 -1 -0 0 0 1 1 1 1 1 1 1 1 1
-4 -4 -4 -4 -4 -4 -4 -4 -4 -4 -4 -4 -4 -4 -3 -4 -4 -4 -4 -4 -4 -3 -3 -3 -3 -2 -2 -2 -2 -1 -1 -1 -1 -0 -0 -0 -0 0 0 0 0 0 0 0
-4 -4 -4 -5 -5 -4 -4 -4 -5 -5 -5 -4 -4 -4 -4 -4 -4 -4 -4 -4 -4 -4 -4 -4 -4 -3 -3 -3 -3 -2 -2 -2 -1 -1 -1 -1 -1 -1 -1 -0 -0 -0 -0 -0
-6 -5 -5 -5 -5 -5 -5 -5 -6 -6 -5 -5 -5 -5 -5 -5 -5 -5 -5 -5 -5 -5 -5 -5 -5 -4 -4 -4 -3 -3 -3 -2 -2 -2 -2 -2 -2 -1 -1 -1 -1 -1 -1 -1
-6 -7 -6 -6 -6 -6 -6 -6 -6 -6 -6 -6 -6 -6 -6 -5 -6 -6 -6 -6 -6 -6 -6 -5 -5 -5 -5 -4 -4 -4 -3 -3 -3 -2 -2 -2 -2 -2 -2 -2 -2 -2 -2 -2

GEFSCGP_850_meantemp_234.txt.gz
Temperature
7 6 6 6 7 8 8 8 8 9 10 9 9 9 10 10 10 10 11 11 12 12 13 13 13 13 12 12 12 12 12 12 11 11 11 11 11 11 11 11 11 11 11 11
5 5 6 7 7 7 7 8 8 9 9 9 8 9 9 9 9 10 10 10 11 11 12 12 12 12 12 12 12 11 11 11 11 11 11 11 11 11 11 11 10 10 10 10
5 6 7 7 7 7 7 7 7 8 9 9 8 8 8 9 10 10 11 11 11 11 11 11 11 12 12 11 11 11 11 11 11 11 11 11 10 10 10 10 10 10 10 10
4 6 6 6 6 7 6 7 8 8 7 6 7 7 7 8 8 9 9 10 10 11 11 11 11 11 11 11 11 11 11 11 11 11 10 10 10 10 10 10 10 10 10 10
4 5 6 6 6 6 6 7 7 7 7 6 6 6 6 7 7 8 8 9 9 10 10 10 11 11 11 11 11 11 10 10 10 10 10 10 10 10 10 10 10 10 9 9
4 5 5 5 6 6 6 6 6 5 5 6 6 6 6 6 7 7 7 8 8 9 10 10 10 10 10 10 10 10 10 10 10 10 10 9 9 9 9 9 9 9 9 9
3 4 5 5 5 5 5 5 5 5 5 5 6 6 5 6 6 6 6 6 7 8 8 9 9 9 9 9 9 9 9 9 9 9 9 9 9 9 9 9 9 9 9 9
1 2 4 4 4 4 4 4 4 5 5 5 6 5 5 5 5 6 6 6 6 7 7 7 8 8 8 9 9 9 9 9 9 9 9 8 8 8 8 9 9 9 9 9
1 1 3 4 4 4 4 4 4 4 4 4 5 4 4 4 4 4 4 4 5 5 6 6 7 7 8 8 8 8 8 8 8 8 8 8 8 8 8 8 8 8 8 8
0 1 2 3 4 4 4 4 3 3 4 5 4 4 3 3 3 3 3 3 4 4 5 5 6 6 7 7 7 7 7 8 8 8 8 8 8 7 7 7 7 7 8 8
0 -0 1 2 2 2 2 3 3 3 3 4 4 3 3 3 3 3 3 3 3 4 4 4 5 5 6 6 6 7 7 7 7 7 7 7 7 7 7 7 7 7 7 7
-0 -1 -1 0 2 2 2 2 2 2 2 2 2 2 3 2 2 2 2 2 2 3 3 4 4 4 5 5 5 6 6 6 6 6 6 6 6 6 6 6 6 6 6 7
-0 -1 -1 -0 1 1 0 1 1 1 1 1 1 2 2 1 1 1 1 1 2 2 2 3 3 4 4 4 4 5 5 5 6 6 6 6 6 6 6 6 6 6 6 6
0 -2 -2 -2 -1 -1 -1 0 1 0 0 0 0 1 0 0 0 0 0 1 1 1 1 2 2 2 3 3 4 4 4 5 5 5 5 5 5 5 5 5 6 6 5 5
-1 -3 -2 -2 -1 -1 -1 -0 0 -0 -0 -0 0 0 -0 -1 -1 -1 -0 0 0 0 0 1 1 1 2 2 3 3 3 4 4 4 4 5 5 5 5 5 5 5 5 5
-2 -3 -3 -2 -1 -1 -1 -1 -1 -1 -0 -0 -0 -1 -1 -1 -1 -1 -1 -1 -1 -1 -1 -0 0 1 1 2 2 3 3 3 3 3 4 4 4 4 4 4 4 4 5 5
-3 -3 -3 -3 -2 -2 -2 -2 -2 -2 -2 -2 -2 -2 -2 -2 -2 -2 -2 -2 -2 -2 -1 -1 -0 0 0 1 1 2 2 2 2 3 3 3 3 3 4 4 4 4 4 4
-4 -4 -3 -3 -3 -4 -3 -3 -2 -2 -3 -2 -2 -2 -2 -2 -2 -2 -2 -2 -2 -2 -2 -1 -1 -0 -0 0 1 1 1 2 2 2 2 2 2 3 3 3 3 3 4 4
-4 -4 -4 -3 -4 -3 -3 -3 -3 -3 -3 -3 -3 -3 -3 -3 -3 -3 -3 -3 -3 -3 -2 -2 -1 -1 -0 -0 0 1 1 1 1 1 1 1 2 2 2 2 3 3 3 3
-4 -4 -4 -4 -4 -4 -4 -4 -3 -3 -4 -4 -4 -4 -4 -4 -4 -4 -4 -4 -3 -3 -3 -2 -2 -1 -1 -1 -0 0 0 1 1 1 1 1 1 1 2 2 2 2 3 3
-5 -6 -6 -6 -5 -5 -5 -4 -3 -4 -5 -5 -5 -5 -5 -4 -4 -4 -4 -4 -4 -4 -3 -3 -2 -2 -2 -1 -1 -0 -0 0 0 0 0 0 1 1 1 1 2 2 2 2
-6 -7 -6 -6 -6 -6 -5 -5 -5 -5 -5 -5 -5 -5 -5 -5 -5 -5 -5 -5 -4 -4 -3 -3 -3 -2 -2 -2 -2 -1 -1 -1 -0 -0 -0 0 0 0 1 1 1 1 1 1
-7 -7 -7 -7 -6 -6 -6 -6 -6 -6 -6 -6 -6 -5 -6 -6 -6 -6 -6 -5 -5 -5 -4 -4 -4 -3 -3 -3 -2 -2 -2 -1 -1 -1 -1 -0 -0 -0 0 0 0 0 0 0
-8 -7 -7 -7 -7 -7 -7 -6 -6 -6 -6 -6 -6 -6 -6 -6 -6 -6 -6 -6 -6 -5 -5 -5 -4 -4 -4 -3 -3 -3 -2 -2 -2 -1 -1 -1 -1 -1 -1 -1 -0 -0 -0 -0
-8 -8 -8 -8 -7 -7 -7 -7 -7 -7 -7 -6 -6 -6 -6 -6 -7 -7 -7 -6 -6 -6 -5 -5 -5 -5 -5 -4 -4 -3 -3 -3 -2 -2 -2 -2 -2 -2 -2 -2 -1 -1 -1 -1
-9 -9 -9 -8 -8 -8 -8 -8 -8 -8 -8 -7 -7 -7 -7 -7 -7 -7 -7 -7 -7 -6 -6 -6 -6 -6 -5 -5 -4 -4 -4 -3 -3 -3 -3 -3 -3 -3 -3 -2 -2 -2 -2 -2

GEFSCGP_850_meantemp_240.txt.gz
Temperature
5 4 4 4 5 6 5 5 6 6 7 7 6 7 7 8 7 7 8 8 9 10 11 11 11 11 11 11 11 12 11 12 11 11 11 11 11 11 11 11 11 11 11 11
3 3 4 5 5 5 5 5 5 6 7 7 6 6 7 7 6 7 7 7 8 9 10 10 11 11 11 11 11 11 11 11 11 11 11 11 11 11 10 10 10 10 10 10
3 4 4 4 4 4 4 4 5 5 6 6 6 6 6 6 6 7 7 7 7 8 8 9 10 10 11 11 11 11 11 11 11 11 11 10 10 10 10 10 10 10 10 10
3 3 4 4 4 4 4 5 5 5 5 5 6 5 5 5 5 5 5 5 6 7 7 8 9 9 10 10 10 11 10 10 10 11 10 10 10 10 10 10 10 10 10 10
2 3 3 3 4 4 4 4 4 5 4 4 4 4 4 4 5 5 4 5 5 6 7 7 8 9 9 10 10 10 10 10 10 10 10 10 10 10 10 10 10 10 9 10
2 3 3 3 3 4 4 4 4 3 3 4 4 4 4 3 4 4 4 4 5 5 6 7 8 8 9 9 9 9 9 9 10 10 9 9 10 9 9 9 9 9 9 9
1 2 2 3 3 3 3 3 3 3 3 3 4 4 3 3 3 3 3 3 4 5 5 6 7 7 8 8 8 9 9 9 9 9 9 9 9 9 9 9 9 9 9 9
-0 0 2 2 2 2 2 2 2 3 3 3 3 3 2 2 2 2 3 3 3 4 4 5 5 6 7 7 8 8 8 8 8 8 8 8 9 9 9 9 8 8 9 9
-1 -0 1 2 2 2 1 2 2 2 2 2 2 2 1 2 1 1 1 1 2 2 3 4 4 5 6 6 7 7 8 8 8 8 8 8 8 8 8 8 8 8 8 8
-1 -1 -0 1 2 2 1 1 1 1 2 2 2 1 1 1 0 0 0 0 1 2 2 3 4 4 5 5 6 6 7 7 7 7 8 8 8 8 7 7 7 7 8 8
-1 -2 -1 -0 -0 -0 0 0 0 0 1 2 2 1 1 -0 -0 -0 -0 -0 0 1 2 2 3 4 4 5 5 6 6 6 7 7 7 7 7 7 7 7 7 7 7 7
-2 -2 -2 -2 -1 -0 -1 -1 -1 -0 -0 0 1 0 -0 -1 -1 -1 -1 -1 -0 0 1 2 2 3 3 4 4 5 5 5 6 6 6 6 7 7 6 6 6 6 6 6
-2 -3 -3 -2 -1 -1 -2 -1 -1 -1 -1 -1 -0 0 -0 -1 -1 -1 -1 -1 -1 -0 0 1 1 2 2 3 3 4 4 5 5 5 5 6 6 6 6 6 6 6 6 6
-1 -3 -3 -3 -2 -2 -2 -2 -2 -2 -2 -2 -1 -1 -1 -1 -2 -2 -2 -2 -1 -1 -1 -0 0 1 2 2 2 3 3 4 4 5 5 5 5 5 5 5 5 5 5 5
-3 -4 -4 -3 -2 -3 -3 -2 -2 -2 -2 -2 -2 -2 -2 -2 -2 -2 -2 -2 -2 -2 -2 -1 -0 0 1 1 2 2 3 3 3 4 4 4 4 4 4 4 5 5 5 5
-4 -4 -4 -4 -2 -3 -3 -3 -3 -3 -3 -3 -2 -3 -3 -3 -3 -3 -3 -3 -3 -3 -3 -2 -1 -0 0 1 1 1 2 2 3 3 3 3 4 4 4 4 4 4 4 4
-5 -5 -4 -4 -3 -3 -4 -4 -4 -4 -4 -4 -4 -4 -4 -4 -4 -4 -4 -4 -4 -3 -3 -3 -2 -1 -0 -0 0 1 1 2 2 2 3 3 3 3 3 3 3 3 4 4
-6 -5 -5 -4 -4 -5 -5 -4 -4 -4 -5 -4 -4 -5 -5 -5 -4 -4 -4 -4 -4 -4 -3 -3 -2 -2 -1 -1 -0 0 1 1 1 1 2 2 2 2 2 2 3 3 3 3
-6 -5 -5 -5 -5 -5 -5 -5 -6 -5 -5 -5 -5 -5 -5 -5 -4 -4 -4 -5 -4 -4 -4 -3 -3 -2 -2 -1 -1 -0 -0 0 1 1 1 1 1 2 2 2 2 2 2 2
-6 -7 -6 -6 -6 -6 -6 -5 -5 -5 -5 -6 -6 -6 -6 -6 -5 -5 -5 -5 -5 -5 -4 -4 -3 -3 -2 -2 -2 -1 -1 -0 -0 0 1 1 1 1 1 1 1 1 1 1
-7 -8 -8 -7 -7 -7 -6 -6 -5 -6 -6 -6 -6 -7 -7 -7 -6 -6 -6 -6 -5 -5 -5 -4 -4 -3 -3 -3 -2 -2 -1 -1 -1 -0 -0 -0 0 0 0 0 0 0 0 1
-8 -8 -8 -8 -8 -7 -7 -6 -7 -7 -7 -7 -7 -7 -7 -7 -7 -7 -7 -6 -6 -6 -5 -5 -4 -4 -4 -3 -3 -2 -2 -2 -2 -1 -1 -1 -0 -0 -0 -0 -0 -0 -0 0
-9 -9 -9 -8 -7 -7 -7 -7 -7 -7 -8 -8 -8 -7 -7 -7 -7 -7 -7 -7 -7 -6 -6 -6 -5 -5 -4 -4 -3 -3 -3 -2 -2 -2 -1 -1 -1 -1 -1 -1 -1 -1 -1 -0
-9 -9 -9 -9 -8 -8 -8 -8 -8 -8 -8 -8 -8 -8 -8 -8 -8 -8 -8 -8 -7 -7 -7 -6 -6 -5 -5 -5 -4 -4 -4 -3 -3 -2 -2 -2 -2 -1 -1 -1 -1 -1 -1 -1
-10 -10 -9 -9 -9 -8 -8 -8 -8 -8 -8 -8 -8 -8 -8 -8 -8 -8 -8 -8 -8 -7 -7 -7 -6 -6 -6 -5 -5 -5 -4 -4 -3 -3 -3 -2 -2 -2 -2 -2 -2 -2 -2 -2
-11 -11 -10 -10 -9 -10 -9 -9 -9 -9 -9 -9 -9 -9 -9 -9 -9 -9 -9 -9 -8 -8 -7 -7 -7 -7 -6 -6 -5 -5 -5 -5 -4 -4 -4 -3 -3 -3 -3 -3 -3 -3 -2 -2

GEFSCGP_850_meantemp_246.txt.gz
Temperature
6 7 7 7 8 8 8 8 8 9 9 9 9 10 10 10 9 9 9 9 9 8 8 9 9 10 10 10 11 11 11 11 11 11 11 11 11 11 11 11 11 11 11 11
6 6 7 7 6 7 7 7 8 8 8 8 9 9 9 9 9 8 8 8 8 8 8 8 8 9 9 9 10 10 10 10 11 11 11 11 11 10 10 10 10 10 11 11
6 6 6 5 6 6 7 7 7 7 7 8 8 8 9 9 8 7 7 7 7 7 7 7 8 8 8 9 9 9 10 10 10 10 10 10 10 10 10 10 10 10 10 10
5 5 5 5 5 5 6 7 6 6 7 8 8 8 9 9 8 7 7 6 6 6 6 6 7 7 8 8 8 9 9 9 10 10 10 10 10 10 10 10 10 10 10 10
5 4 4 5 5 5 6 6 6 6 6 6 7 7 8 8 7 7 7 6 5 5 5 5 6 6 7 8 8 8 8 9 9 9 9 9 9 9 9 9 9 9 9 9
4 4 4 4 5 5 5 5 5 6 6 5 7 7 8 7 6 6 6 5 4 4 4 4 5 5 6 7 7 8 8 8 8 9 9 9 9 9 9 9 9 9 9 9
3 4 4 4 4 4 4 5 5 5 5 6 7 6 6 5 5 5 4 4 3 3 3 3 4 5 5 6 6 7 7 7 8 8 8 9 9 9 9 9 8 8 9 9
2 3 3 3 3 3 4 4 5 5 6 7 6 6 5 4 3 3 3 2 2 2 2 2 2 3 4 5 5 6 6 7 7 8 8 8 8 8 8 8 8 8 8 8
2 2 3 3 3 3 3 3 4 4 5 5 5 5 4 3 3 3 2 2 1 1 1 1 2 2 3 4 5 5 6 6 7 7 7 7 8 8 8 8 8 8 8 8
1 1 2 2 3 3 3 3 3 3 4 5 5 5 4 2 2 2 2 1 0 0 0 1 1 2 3 3 4 4 5 5 6 6 6 7 7 7 7 7 7 7 7 7
0 0 1 2 1 1 1 1 2 3 3 4 4 4 2 2 1 1 1 0 -0 -0 -0 0 0 1 2 3 3 4 4 4 5 5 6 6 6 6 7 7 7 7 7 7
-0 0 1 1 1 1 1 0 1 1 2 3 3 3 1 0 0 0 -0 -0 -1 -1 -1 -1 -0 1 2 2 3 3 4 4 4 5 5 5 6 6 6 6 6 6 6 7
-1 -1 -0 1 1 0 -0 -0 -1 -0 1 1 2 2 1 -0 -0 -1 -1 -2 -2 -2 -2 -1 -1 0 1 1 2 2 3 3 4 4 4 5 5 5 5 5 6 6 6 6
-1 -1 -1 -0 -0 -1 -1 -1 -1 -1 -0 0 1 1 -0 -1 -1 -2 -2 -3 -3 -3 -2 -2 -2 -1 0 1 1 2 2 3 3 3 3 4 4 4 5 5 5 5 5 5
-1 -2 -2 -1 -1 -1 -1 -1 -1 -2 -1 -1 -0 -1 -1 -2 -2 -3 -3 -3 -3 -3 -3 -3 -2 -2 -1 0 1 1 2 2 2 3 3 3 3 4 4 4 4 4 4 5
-2 -3 -2 -2 -1 -1 -2 -2 -2 -2 -2 -2 -1 -2 -2 -3 -3 -4 -4 -4 -4 -4 -4 -4 -3 -2 -2 -1 0 1 1 2 2 2 2 3 3 3 3 3 4 4 4 4
-3 -3 -3 -2 -2 -2 -3 -3 -3 -3 -3 -3 -3 -3 -3 -3 -4 -4 -5 -5 -5 -5 -5 -4 -4 -3 -2 -2 -1 0 1 1 1 2 2 2 2 2 2 3 3 3 3 3
-4 -4 -3 -2 -2 -3 -3 -3 -4 -4 -4 -4 -4 -4 -4 -5 -5 -5 -6 -6 -6 -6 -5 -5 -4 -3 -3 -2 -1 -1 -0 0 1 1 1 2 2 2 2 2 2 2 2 2
-4 -4 -3 -3 -3 -3 -3 -4 -4 -4 -4 -5 -5 -5 -5 -6 -5 -5 -6 -6 -6 -6 -6 -5 -4 -4 -3 -2 -2 -1 -1 -0 0 0 1 1 1 1 1 1 1 2 2 2
-4 -4 -4 -4 -3 -4 -4 -4 -5 -4 -4 -5 -6 -6 -6 -6 -4 -5 -6 -7 -7 -6 -6 -5 -5 -4 -3 -3 -2 -2 -2 -1 -1 -0 0 0 1 1 1 1 1 1 1 1
-5 -5 -5 -4 -4 -4 -5 -6 -5 -4 -5 -6 -7 -7 -7 -7 -6 -7 -7 -7 -7 -7 -6 -5 -5 -4 -4 -4 -3 -3 -2 -2 -1 -1 -1 -0 0 0 0 0 0 1 1 1
-5 -5 -5 -5 -5 -5 -6 -6 -6 -6 -7 -7 -7 -8 -8 -8 -8 -8 -8 -8 -7 -7 -6 -6 -5 -5 -5 -4 -4 -4 -3 -3 -2 -2 -1 -1 -1 -1 -1 -0 -0 -0 -0 -0
-6 -6 -5 -6 -5 -7 -7 -7 -8 -8 -8 -8 -8 -8 -8 -8 -8 -8 -9 -8 -8 -8 -7 -7 -6 -6 -5 -5 -5 -4 -4 -4 -3 -2 -2 -2 -2 -1 -1 -1 -1 -1 -1 -1
-7 -8 -7 -7 -6 -7 -8 -8 -8 -9 -9 -9 -9 -9 -9 -9 -9 -9 -9 -9 -9 -8 -8 -7 -7 -7 -6 -6 -6 -5 -5 -4 -4 -3 -3 -3 -2 -2 -2 -2 -2 -2 -2 -2
-8 -8 -8 -7 -7 -8 -8 -9 -9 -9 -9 -9 -9 -9 -9 -9 -9 -10 -10 -10 -9 -9 -8 -8 -8 -7 -7 -7 -6 -6 -5 -5 -4 -4 -4 -3 -3 -3 -2 -2 -2 -2 -2 -2
-9 -9 -8 -7 -8 -9 -9 -9 -10 -10 -10 -10 -10 -10 -10 -10 -10 -10 -10 -10 -10 -9 -9 -8 -8 -8 -7 -7 -6 -6 -6 -5 -5 -4 -4 -4 -4 -3 -3 -3 -3 -3 -3 -3

GEFSCGP_850_meantemp_252.txt.gz
Temperature
8 7 6 7 7 8 8 8 8 9 10 10 9 9 9 9 9 9 9 10 9 9 9 9 9 9 10 10 10 10 10 10 11 11 11 11 11 11 11 11 11 11 11 11
7 5 7 8 8 7 7 7 7 8 9 9 8 8 9 9 9 9 9 9 9 8 8 8 8 8 9 9 9 9 9 10 10 10 10 10 11 11 11 11 11 11 11 11
5 6 7 7 7 6 7 6 7 7 8 8 8 7 8 8 8 8 8 8 8 7 7 7 7 7 7 8 8 9 9 9 9 10 10 10 10 10 10 10 10 10 11 11
6 7 7 6 6 6 6 7 7 6 6 5 7 5 7 7 7 7 7 6 6 6 6 6 6 6 7 7 7 8 8 8 9 9 9 9 9 9 10 10 10 10 10 10
5 6 5 5 5 6 5 6 6 6 5 5 6 5 6 7 6 5 5 5 5 5 5 5 5 5 6 6 7 7 7 8 8 8 9 9 9 9 9 9 9 9 9 10
5 6 5 5 6 6 6 6 6 6 5 4 5 5 5 4 4 4 4 4 4 4 4 4 4 5 5 6 6 6 7 7 7 8 8 8 9 9 9 9 9 9 9 9
4 5 5 5 4 5 5 3 3 3 3 4 6 5 4 3 3 3 3 3 3 3 3 3 3 4 4 5 5 6 6 6 7 7 7 8 8 8 8 8 8 8 8 9
2 3 4 4 3 3 3 3 2 2 3 4 5 4 2 3 3 3 2 2 2 2 2 2 3 3 3 4 4 5 5 6 6 6 7 7 7 8 8 8 8 8 8 8
1 2 4 4 4 3 3 2 3 2 3 3 4 3 3 2 2 1 1 1 1 1 1 1 2 2 2 3 3 4 4 5 5 6 6 6 7 7 7 7 7 7 8 8
1 1 2 3 3 3 3 3 2 1 2 2 3 2 1 0 0 0 0 0 -0 -0 -0 0 1 1 1 2 2 3 4 4 5 5 5 6 6 6 6 6 7 7 7 7
1 -0 1 2 1 1 1 1 1 1 2 2 2 1 1 -0 -1 -1 -1 -0 -1 -1 -1 -1 -0 -0 1 1 1 2 3 4 4 4 5 5 5 5 6 6 6 6 6 7
0 -0 -1 1 1 1 1 0 0 -1 0 1 1 -0 -0 -1 -1 -1 -1 -1 -1 -2 -2 -2 -1 -1 -0 0 1 1 2 3 4 4 4 4 4 5 5 5 5 6 6 6
-1 -2 -2 -1 -0 -0 -0 -0 -0 -1 -1 -1 -0 -1 -0 -1 -1 -1 -2 -2 -2 -2 -2 -2 -2 -2 -1 -1 0 1 2 2 3 3 3 3 4 4 5 5 5 5 5 6
0 -2 -2 -2 -1 -1 -2 -1 -1 -2 -2 -2 -1 -2 -2 -2 -2 -2 -2 -3 -3 -3 -3 -3 -3 -3 -2 -1 -0 0 1 2 2 3 3 3 3 4 4 4 4 4 5 5
-1 -2 -2 -2 -1 -1 -2 -2 -2 -2 -2 -2 -2 -2 -3 -3 -3 -3 -3 -3 -4 -4 -4 -4 -4 -3 -3 -2 -1 -0 0 1 2 2 3 3 3 3 3 4 4 4 4 4
-2 -3 -3 -3 -1 -1 -2 -2 -3 -2 -2 -3 -3 -3 -3 -3 -3 -4 -4 -4 -4 -5 -5 -5 -5 -4 -3 -3 -2 -1 -0 1 1 2 2 2 3 3 3 3 3 3 3 3
-3 -4 -3 -3 -2 -2 -4 -4 -4 -4 -4 -4 -4 -4 -4 -4 -4 -5 -5 -5 -5 -6 -6 -6 -5 -5 -4 -3 -2 -2 -1 0 1 1 2 2 2 2 2 3 3 2 3 3
-4 -4 -4 -3 -3 -4 -4 -4 -4 -4 -4 -4 -5 -5 -5 -5 -5 -5 -5 -6 -6 -6 -6 -6 -6 -5 -4 -4 -3 -2 -1 -0 0 1 1 1 2 2 2 2 2 2 2 2
-3 -4 -4 -4 -4 -4 -4 -4 -5 -5 -5 -5 -5 -5 -5 -5 -5 -5 -5 -6 -6 -7 -6 -6 -6 -6 -5 -4 -3 -3 -2 -1 -1 -0 0 1 1 1 2 2 2 2 2 2
-4 -4 -5 -4 -4 -5 -5 -5 -4 -5 -5 -6 -6 -6 -6 -6 -6 -6 -6 -7 -7 -7 -7 -7 -6 -6 -5 -4 -4 -3 -3 -2 -2 -1 -0 0 0 1 1 1 1 1 1 1
-5 -5 -5 -5 -5 -5 -6 -5 -5 -6 -7 -7 -7 -7 -7 -7 -7 -7 -7 -7 -7 -7 -7 -7 -6 -6 -5 -5 -4 -4 -3 -3 -2 -2 -1 -1 -0 -0 0 0 0 1 1 1
-6 -6 -6 -5 -6 -6 -7 -6 -7 -7 -7 -7 -7 -8 -8 -8 -8 -8 -8 -8 -8 -8 -7 -7 -7 -6 -6 -5 -5 -4 -4 -4 -3 -2 -2 -1 -1 -1 -1 -0 -0 -0 -0 -0
-6 -7 -7 -7 -7 -7 -7 -7 -7 -8 -8 -8 -8 -8 -8 -8 -8 -8 -8 -8 -8 -8 -8 -8 -7 -7 -6 -6 -5 -5 -5 -4 -4 -3 -3 -2 -2 -2 -1 -1 -1 -1 -1 -1
-7 -7 -7 -7 -7 -7 -7 -7 -8 -8 -9 -9 -9 -9 -9 -9 -9 -9 -9 -9 -9 -9 -9 -8 -8 -8 -7 -6 -6 -6 -5 -5 -4 -4 -4 -3 -3 -2 -2 -2 -2 -1 -1 -1
-7 -8 -8 -8 -8 -8 -8 -8 -9 -9 -9 -9 -9 -9 -9 -9 -9 -9 -9 -10 -10 -9 -9 -9 -9 -8 -8 -7 -7 -6 -6 -5 -5 -5 -4 -4 -4 -3 -3 -3 -3 -2 -2 -2
-9 -9 -10 -9 -9 -9 -9 -9 -9 -10 -10 -10 -10 -10 -10 -10 -10 -10 -10 -10 -10 -10 -10 -9 -9 -9 -8 -8 -7 -7 -6 -6 -6 -6 -5 -5 -4 -4 -4 -4 -4 -3 -3 -3

GEFSCGP_850_meantemp_258.txt.gz
Temperature
4 3 3 3 4 4 4 4 4 5 6 6 5 5 5 5 5 5 4 5 5 5 6 6 7 7 8 8 9 9 9 9 9 10 10 10 10 11 11 11 11 11 11 11
2 2 4 4 4 4 4 4 3 4 6 6 5 4 4 4 4 3 3 3 3 4 5 5 6 7 7 7 8 8 9 9 9 9 9 9 10 10 10 10 10 10 11 11
2 3 4 4 4 4 3 3 3 4 4 5 4 3 3 3 3 2 2 2 2 2 3 4 5 5 6 7 7 7 8 8 8 9 9 9 9 9 9 10 10 10 10 10
2 3 4 3 3 3 3 4 4 4 3 2 3 2 2 2 1 1 1 1 1 1 2 3 4 4 5 6 6 7 7 7 8 8 8 9 9 9 9 9 9 9 10 10
2 2 3 3 3 3 3 3 3 3 2 2 2 2 1 0 0 0 0 0 0 0 1 2 3 4 4 5 5 6 6 7 7 7 8 8 8 8 9 9 9 9 9 9
2 3 3 2 3 3 3 2 2 1 1 1 1 1 0 -1 -0 -1 -0 -0 -0 -1 0 1 2 3 3 4 5 5 6 6 6 7 7 7 8 8 8 8 8 8 9 9
1 2 2 2 2 2 1 0 0 0 0 1 1 1 -1 -1 -1 -1 -1 -1 -1 -1 -1 -0 1 2 2 3 4 4 5 6 6 6 6 6 7 7 7 7 8 8 8 8
-1 -0 1 1 1 1 1 0 -0 -0 -0 -0 0 -0 -2 -2 -1 -1 -1 -1 -2 -2 -1 -1 -0 0 1 2 3 4 4 4 5 5 5 6 6 6 7 7 7 7 8 8
-2 -1 1 1 1 1 0 -0 -0 -1 -1 -1 -1 -2 -2 -1 -2 -2 -2 -2 -2 -2 -2 -2 -1 -0 1 1 2 3 3 4 4 4 5 5 5 6 6 6 6 7 7 7
-2 -2 -1 0 1 1 0 -1 -2 -2 -1 -1 -1 -2 -2 -3 -3 -3 -3 -3 -3 -3 -3 -2 -2 -1 -0 0 1 2 3 3 3 4 4 4 5 5 5 6 6 6 7 7
-2 -3 -2 -1 -1 -1 -1 -1 -2 -2 -2 -2 -1 -2 -3 -3 -3 -3 -3 -3 -3 -3 -3 -3 -3 -2 -1 -0 0 1 2 2 3 3 3 4 4 4 4 5 5 6 6 6
-3 -4 -3 -3 -2 -1 -2 -2 -3 -3 -3 -3 -3 -3 -3 -4 -3 -3 -4 -4 -4 -4 -4 -4 -3 -2 -2 -1 -1 -0 1 1 2 3 3 3 3 4 4 4 5 5 5 6
-3 -4 -4 -3 -2 -3 -3 -3 -3 -4 -4 -4 -3 -3 -3 -4 -4 -4 -4 -4 -4 -4 -4 -4 -4 -3 -2 -2 -2 -1 -0 1 1 2 2 3 3 3 3 4 4 5 5 5
-2 -5 -5 -4 -3 -4 -4 -4 -4 -4 -4 -4 -4 -4 -4 -4 -5 -5 -5 -5 -5 -5 -5 -5 -4 -4 -3 -3 -2 -2 -1 -0 0 1 1 2 2 3 3 3 4 4 4 5
-4 -5 -5 -5 -4 -4 -4 -4 -4 -4 -5 -5 -5 -5 -5 -5 -5 -5 -5 -5 -6 -6 -5 -5 -5 -5 -4 -3 -3 -2 -1 -1 -0 0 1 1 2 2 2 3 3 3 4 4
-5 -5 -5 -5 -4 -4 -4 -5 -5 -5 -5 -5 -5 -5 -6 -6 -6 -6 -6 -6 -6 -6 -6 -6 -6 -5 -5 -4 -4 -3 -2 -2 -1 -1 -0 1 1 2 2 2 3 3 3 4
-6 -6 -6 -6 -5 -5 -6 -6 -6 -6 -6 -6 -6 -6 -7 -7 -6 -6 -6 -7 -7 -7 -7 -7 -6 -6 -5 -5 -4 -4 -3 -2 -2 -1 -1 -0 0 1 1 2 2 3 3 3
-6 -6 -7 -6 -6 -6 -6 -6 -6 -6 -7 -7 -7 -7 -7 -7 -7 -6 -6 -7 -7 -7 -7 -7 -7 -6 -6 -5 -5 -4 -3 -3 -2 -2 -1 -1 -0 0 1 1 2 2 2 2
-6 -6 -7 -7 -7 -7 -6 -6 -7 -7 -7 -8 -8 -8 -7 -7 -7 -7 -7 -7 -7 -7 -7 -7 -7 -7 -6 -5 -5 -4 -4 -3 -3 -2 -2 -1 -1 -0 0 1 1 1 2 2
-6 -7 -7 -7 -7 -7 -7 -7 -7 -7 -8 -8 -8 -8 -8 -8 -8 -8 -7 -8 -7 -7 -7 -7 -7 -7 -6 -6 -6 -5 -4 -4 -4 -3 -2 -2 -1 -1 -0 0 1 1 1 1
-7 -8 -8 -8 -8 -8 -8 -8 -7 -7 -8 -8 -9 -9 -9 -9 -9 -8 -8 -8 -8 -8 -8 -8 -7 -7 -7 -6 -6 -6 -5 -5 -4 -4 -3 -2 -2 -1 -1 -0 -0 0 0 0
-8 -9 -9 -9 -9 -8 -8 -8 -9 -9 -8 -9 -9 -9 -9 -9 -9 -9 -8 -8 -8 -8 -8 -8 -8 -7 -7 -7 -7 -6 -6 -5 -5 -4 -3 -3 -2 -2 -1 -1 -1 -0 -0 -0
-9 -9 -9 -9 -8 -8 -8 -8 -8 -8 -9 -9 -9 -9 -9 -10 -9 -9 -9 -9 -9 -9 -9 -8 -8 -8 -7 -7 -7 -7 -6 -6 -5 -5 -4 -3 -3 -2 -2 -2 -1 -1 -1 -1
-10 -10 -10 -10 -9 -9 -8 -8 -9 -9 -9 -9 -10 -10 -10 -10 -10 -10 -10 -9 -9 -9 -9 -9 -9 -8 -8 -8 -8 -7 -7 -6 -5 -5 -4 -4 -4 -3 -3 -2 -2 -2 -2 -1
-10 -11 -10 -10 -10 -9 -9 -9 -9 -9 -10 -10 -10 -10 -10 -10 -10 -10 -10 -10 -10 -10 -9 -9 -9 -9 -9 -8 -8 -8 -7 -6 -6 -5 -5 -4 -4 -4 -4 -3 -3 -3 -2 -2
-11 -11 -11 -10 -10 -10 -10 -9 -10 -10 -10 -10 -10 -10 -10 -10 -10 -10 -10 -10 -10 -10 -10 -10 -9 -9 -9 -9 -8 -8 -7 -7 -7 -6 -6 -5 -5 -5 -5 -4 -4 -4 -3 -3

GEFSCGP_850_meantemp_264.txt.gz
Temperature
3 2 2 2 3 3 3 3 3 3 4 3 2 2 1 1 1 1 1 1 1 1 3 4 5 6 6 7 7 7 8 8 8 8 9 9 9 9 10 10 10 10 10 10
2 1 2 3 3 3 3 3 2 3 3 3 1 1 1 0 0 -0 -0 -0 -0 1 2 3 4 5 5 6 6 6 7 7 7 7 8 8 9 9 9 9 9 10 10 10
1 2 3 3 2 3 2 2 2 2 3 2 2 1 0 -0 -0 -0 -1 -1 -1 -1 0 1 2 3 4 5 5 6 6 6 7 7 7 8 8 8 9 9 9 9 9 9
1 1 2 2 2 2 2 2 2 2 2 1 1 0 -0 -1 -1 -1 -1 -2 -1 -1 -1 0 1 2 3 3 4 5 5 6 6 6 6 7 7 7 8 8 9 9 9 9
0 1 1 1 2 2 1 2 1 1 1 -0 -0 -0 -1 -2 -2 -2 -2 -2 -2 -1 -1 -1 0 1 2 2 3 4 5 5 5 5 6 6 6 7 7 7 8 8 8 8
0 1 1 1 1 2 1 1 1 -0 -0 -0 -1 -1 -1 -2 -2 -2 -2 -2 -2 -2 -2 -1 -0 1 1 2 2 3 4 4 5 5 5 5 6 6 6 7 7 7 8 8
-0 0 0 0 1 1 0 -0 -0 -0 -1 -0 -1 -1 -2 -3 -3 -3 -3 -2 -2 -2 -2 -2 -1 -0 0 1 1 2 3 4 4 4 5 5 5 6 6 6 6 7 7 7
-2 -1 -1 -1 -0 -1 -1 -1 -1 -1 -1 -1 -2 -2 -3 -3 -3 -3 -3 -3 -2 -3 -2 -2 -2 -1 -1 0 1 1 2 3 3 4 4 4 5 5 5 5 6 6 6 7
-3 -2 -1 -0 -0 -1 -1 -2 -2 -2 -3 -3 -3 -4 -4 -3 -4 -4 -3 -3 -3 -3 -3 -3 -2 -2 -1 -1 -0 0 1 2 2 3 3 4 4 4 5 5 5 5 6 6
-3 -3 -2 -1 -0 -1 -1 -2 -3 -2 -2 -2 -3 -4 -4 -4 -4 -4 -4 -4 -4 -4 -3 -3 -3 -2 -2 -1 -1 -0 1 1 2 2 3 3 3 4 4 5 5 5 5 6
-4 -4 -3 -3 -3 -3 -3 -3 -4 -4 -3 -3 -3 -3 -4 -5 -5 -5 -5 -4 -4 -4 -4 -4 -3 -3 -2 -2 -1 -1 0 1 1 2 2 3 3 3 4 4 4 4 5 5
-4 -5 -5 -4 -3 -3 -3 -4 -4 -4 -4 -5 -4 -4 -4 -5 -5 -5 -5 -5 -5 -5 -4 -4 -4 -3 -3 -2 -2 -1 -1 -0 1 1 2 2 2 3 3 3 4 4 4 4
-4 -5 -5 -4 -3 -4 -4 -5 -5 -5 -5 -5 -5 -4 -4 -5 -5 -5 -5 -5 -5 -5 -5 -5 -4 -4 -3 -3 -2 -2 -1 -1 -0 0 1 2 2 2 3 3 3 3 4 4
-4 -6 -5 -4 -4 -5 -6 -5 -6 -6 -6 -6 -6 -5 -5 -5 -6 -6 -6 -6 -6 -6 -6 -5 -5 -5 -4 -4 -3 -3 -2 -2 -1 -0 0 1 1 2 2 2 2 3 3 3
-5 -6 -6 -6 -5 -6 -6 -6 -6 -6 -6 -6 -6 -6 -6 -6 -6 -6 -6 -6 -6 -6 -6 -6 -6 -5 -5 -4 -4 -3 -3 -2 -2 -1 -1 -0 1 1 1 2 2 2 2 3
-6 -6 -7 -6 -6 -6 -6 -6 -6 -6 -6 -7 -6 -7 -7 -6 -6 -6 -6 -7 -7 -7 -7 -7 -6 -6 -5 -5 -5 -4 -3 -3 -3 -2 -1 -1 -0 0 1 1 1 2 2 2
-7 -7 -6 -6 -7 -6 -7 -7 -7 -7 -8 -8 -7 -7 -8 -8 -7 -7 -7 -7 -7 -7 -7 -7 -7 -6 -6 -6 -5 -5 -4 -4 -3 -3 -2 -2 -1 -0 0 0 1 1 1 1
-7 -7 -7 -7 -7 -7 -6 -8 -8 -8 -8 -9 -8 -9 -9 -9 -8 -8 -7 -7 -8 -8 -8 -7 -7 -7 -6 -6 -6 -5 -5 -4 -4 -3 -3 -2 -2 -1 -1 -1 -0 0 1 1
-7 -7 -8 -8 -8 -8 -7 -8 -9 -9 -9 -9 -9 -9 -9 -9 -8 -8 -7 -8 -8 -8 -8 -8 -7 -7 -7 -7 -6 -6 -5 -5 -4 -4 -3 -3 -2 -2 -2 -1 -1 -0 -0 0
-8 -8 -8 -8 -7 -7 -7 -8 -8 -8 -9 -9 -9 -10 -9 -9 -9 -9 -8 -9 -9 -8 -8 -8 -8 -7 -7 -7 -7 -6 -6 -5 -5 -4 -4 -3 -3 -3 -2 -2 -1 -1 -1 -0
-8 -9 -9 -9 -9 -8 -9 -9 -8 -8 -8 -9 -9 -9 -10 -10 -10 -9 -9 -9 -9 -9 -8 -8 -8 -8 -8 -7 -7 -7 -6 -6 -5 -5 -4 -4 -3 -3 -3 -2 -2 -2 -1 -1
-9 -9 -10 -10 -9 -8 -9 -9 -9 -9 -9 -9 -9 -9 -10 -10 -10 -10 -9 -9 -9 -9 -9 -9 -8 -8 -8 -8 -8 -7 -7 -6 -6 -5 -5 -4 -4 -4 -3 -3 -2 -2 -2 -1
-10 -10 -10 -10 -9 -9 -9 -9 -8 -9 -9 -9 -9 -10 -10 -10 -10 -10 -10 -10 -10 -10 -9 -9 -9 -9 -8 -8 -8 -8 -7 -7 -6 -6 -5 -5 -5 -4 -4 -4 -3 -3 -2 -2
-11 -11 -11 -11 -10 -9 -9 -9 -9 -9 -9 -9 -10 -10 -10 -10 -10 -10 -10 -10 -10 -10 -10 -10 -9 -9 -9 -9 -9 -8 -8 -7 -7 -6 -6 -5 -5 -5 -5 -4 -4 -3 -3 -3
-11 -12 -11 -11 -11 -10 -9 -9 -9 -9 -9 -10 -10 -10 -10 -11 -10 -10 -10 -10 -10 -10 -10 -10 -10 -10 -9 -9 -9 -9 -8 -8 -7 -7 -7 -6 -6 -6 -5 -5 -4 -4 -4 -3
-12 -12 -11 -10 -10 -11 -9 -9 -9 -10 -10 -10 -10 -10 -10 -11 -11 -11 -11 -11 -11 -10 -10 -10 -10 -10 -10 -9 -9 -9 -9 -8 -8 -8 -7 -7 -7 -6 -6 -6 -5 -5 -4 -4

GEFSCGP_850_meantemp_270.txt.gz
Temperature
5 7 6 6 6 7 7 7 7 7 6 5 5 5 4 3 3 2 2 2 1 1 1 2 3 4 4 5 5 6 6 7 7 7 8 8 8 8 9 9 9 9 10 10
6 6 5 5 5 6 6 6 7 6 5 5 4 4 4 3 2 2 1 1 1 1 1 2 2 3 3 4 4 5 6 6 6 7 7 7 7 8 8 9 9 9 9 9
6 5 5 5 5 5 5 6 6 5 4 4 4 5 4 3 2 1 1 0 0 0 0 1 1 2 2 3 3 4 5 5 6 6 6 6 7 7 7 8 8 8 8 8
4 4 4 4 4 4 5 5 5 4 4 5 4 5 5 3 2 1 1 0 -0 -0 -0 -0 0 1 2 2 3 3 4 5 5 5 5 6 6 6 7 7 7 8 8 8
4 3 3 4 4 3 4 4 4 4 4 4 4 4 5 2 2 2 1 -0 -1 -1 -1 -1 -0 0 1 1 2 3 3 4 4 5 5 5 5 6 6 6 7 7 7 7
3 2 2 3 3 3 3 3 3 3 4 3 3 4 5 3 2 2 1 -0 -1 -1 -1 -1 -1 -0 0 1 1 2 3 3 4 4 4 4 5 5 5 6 6 6 6 7
3 2 2 2 2 3 3 4 4 4 4 4 3 3 3 1 1 1 -0 -1 -1 -2 -2 -1 -1 -1 -0 0 1 1 2 3 3 3 4 4 4 4 5 5 5 5 6 6
2 3 1 1 1 2 2 3 3 4 4 5 3 3 3 0 -1 -1 -1 -2 -2 -2 -2 -2 -2 -1 -1 -0 0 0 1 2 2 3 3 3 3 4 4 4 4 5 5 5
2 2 1 0 0 1 2 2 1 2 2 2 3 2 1 -0 -1 -1 -2 -2 -3 -3 -3 -3 -2 -2 -2 -1 -1 -0 -0 1 1 2 2 3 3 3 3 4 4 4 4 5
0 0 1 0 1 0 1 1 1 2 2 3 3 2 2 -1 -1 -1 -2 -2 -3 -3 -3 -3 -3 -2 -2 -2 -1 -1 -1 -0 0 1 2 2 3 3 3 3 4 4 4 4
-1 -1 0 0 -1 -0 -1 -0 0 1 1 2 3 2 0 -1 -1 -1 -2 -3 -4 -4 -4 -4 -3 -3 -2 -2 -2 -1 -1 -1 -0 0 1 1 2 2 2 3 3 3 3 4
-1 -1 -0 -0 -1 -2 -1 -1 -1 0 0 0 1 1 -1 -2 -2 -3 -3 -4 -4 -5 -4 -4 -4 -3 -3 -3 -2 -2 -2 -2 -1 -1 0 1 1 1 2 2 3 3 3 3
-2 -2 -0 1 -1 -2 -2 -3 -3 -3 -1 -0 0 1 -1 -2 -3 -3 -4 -4 -5 -5 -5 -5 -4 -4 -4 -3 -3 -3 -3 -2 -2 -1 -1 -0 0 1 1 2 2 2 3 3
-2 -3 -1 0 -0 -2 -3 -3 -4 -3 -2 -1 -1 -1 -2 -2 -3 -3 -4 -5 -5 -5 -6 -5 -5 -5 -5 -4 -4 -3 -3 -3 -2 -2 -2 -1 -1 -0 0 1 1 2 2 2
-2 -3 -3 -3 -3 -3 -3 -4 -4 -4 -3 -2 -2 -2 -3 -3 -4 -4 -5 -5 -6 -6 -6 -6 -6 -6 -5 -5 -5 -4 -4 -3 -3 -3 -2 -2 -1 -1 -1 -0 1 1 2 2
-3 -3 -4 -4 -4 -4 -4 -4 -4 -4 -4 -4 -3 -3 -3 -5 -5 -5 -6 -6 -6 -7 -7 -7 -6 -6 -6 -6 -5 -5 -5 -4 -4 -3 -3 -3 -2 -2 -1 -1 -0 0 1 1
-4 -4 -4 -2 -4 -4 -3 -4 -5 -5 -5 -5 -4 -4 -5 -5 -6 -6 -7 -7 -7 -7 -7 -7 -7 -7 -7 -6 -6 -6 -5 -5 -4 -4 -4 -3 -3 -2 -2 -2 -1 -0 0 0
-5 -5 -4 -3 -4 -4 -3 -6 -5 -6 -6 -6 -6 -6 -6 -7 -7 -8 -8 -8 -8 -8 -8 -8 -8 -7 -7 -7 -6 -6 -6 -5 -5 -5 -4 -4 -4 -3 -3 -2 -2 -1 -1 -0
-5 -5 -4 -4 -3 -3 -4 -6 -6 -6 -6 -6 -7 -7 -7 -8 -7 -7 -8 -8 -9 -9 -9 -8 -8 -8 -8 -7 -7 -7 -6 -6 -6 -5 -5 -5 -4 -4 -3 -3 -2 -2 -1 -1
-6 -6 -4 -5 -4 -3 -3 -6 -8 -6 -5 -6 -8 -8 -8 -8 -6 -6 -8 -9 -9 -9 -9 -8 -8 -8 -8 -8 -7 -7 -7 -7 -6 -6 -5 -5 -5 -4 -4 -3 -3 -2 -2 -1
-6 -6 -6 -5 -4 -4 -5 -8 -7 -5 -5 -7 -8 -8 -9 -8 -8 -9 -9 -9 -9 -9 -9 -9 -8 -8 -8 -8 -8 -8 -8 -7 -7 -6 -6 -5 -5 -5 -4 -4 -3 -3 -2 -2
-6 -6 -6 -6 -5 -5 -7 -8 -7 -6 -8 -8 -9 -9 -9 -10 -10 -10 -10 -10 -9 -9 -9 -9 -9 -9 -9 -9 -8 -8 -8 -8 -7 -7 -6 -6 -5 -5 -4 -4 -4 -4 -3 -3
-7 -6 -6 -6 -5 -7 -8 -8 -8 -8 -9 -9 -9 -9 -10 -10 -10 -10 -10 -10 -10 -10 -10 -10 -9 -9 -9 -9 -9 -9 -8 -8 -8 -7 -7 -6 -6 -5 -5 -5 -4 -4 -4 -3
-8 -9 -8 -8 -7 -8 -9 -9 -9 -9 -9 -9 -9 -10 -10 -10 -10 -10 -10 -10 -10 -10 -10 -10 -10 -10 -9 -9 -9 -9 -9 -9 -8 -8 -7 -7 -6 -6 -5 -5 -5 -5 -4 -4
-7 -9 -9 -8 -8 -9 -9 -9 -9 -9 -10 -10 -10 -10 -10 -10 -10 -11 -11 -10 -10 -10 -10 -10 -10 -10 -10 -10 -10 -9 -9 -9 -9 -8 -8 -7 -7 -6 -6 -6 -5 -5 -5 -5
-9 -9 -8 -7 -8 -9 -8 -9 -9 -10 -10 -10 -10 -10 -10 -11 -11 -11 -11 -11 -11 -11 -10 -10 -10 -10 -10 -10 -10 -10 -10 -10 -9 -9 -8 -8 -8 -7 -7 -6 -6 -6 -5 -5

GEFSCGP_850_meantemp_276.txt.gz
Temperature
8 7 6 6 7 7 7 7 7 8 8 7 6 5 6 6 5 5 4 4 4 3 3 3 3 3 4 4 5 5 5 6 6 7 7 7 8 8 8 8 8 9 9 9
7 6 6 7 7 7 7 6 6 7 7 6 5 5 5 5 4 4 4 3 3 3 2 2 2 3 3 3 4 4 5 5 5 6 6 7 7 7 8 8 8 8 8 8
5 5 6 6 6 6 6 5 5 5 5 6 4 4 5 5 4 4 3 3 2 2 2 2 2 2 2 3 3 3 4 4 5 5 5 6 6 7 7 7 8 8 8 8
5 5 6 5 5 5 5 5 5 5 4 3 4 3 4 4 3 3 3 3 2 2 1 1 1 1 1 2 2 3 3 4 4 4 4 5 5 6 6 7 7 7 7 7
5 4 4 4 4 4 4 5 5 4 4 3 3 3 3 3 2 2 2 2 1 1 1 1 1 1 1 2 2 2 3 3 3 4 4 4 5 5 5 6 6 6 7 7
4 4 4 3 4 4 4 4 4 4 3 2 3 3 2 2 2 2 2 2 1 1 0 0 1 1 1 1 2 2 2 2 3 3 3 3 4 4 5 5 5 6 6 6
4 4 3 3 3 4 3 2 2 2 2 3 4 3 2 1 1 1 1 1 1 0 -0 -0 -0 0 0 1 1 1 1 2 2 2 3 3 3 4 4 4 5 5 5 5
3 3 2 2 2 1 2 2 1 1 2 3 3 2 1 1 1 1 1 1 0 -0 -1 -1 -1 -0 -0 -0 0 1 1 1 1 2 2 2 2 3 3 3 4 4 4 5
1 2 2 2 2 2 2 2 2 1 1 1 2 2 1 1 0 0 0 -0 -1 -1 -1 -1 -1 -1 -1 -1 -0 -0 0 0 1 1 1 2 2 2 3 3 3 3 4 4
1 0 1 2 2 1 1 1 0 0 0 1 2 1 0 -1 -1 -1 -1 -1 -1 -2 -2 -2 -2 -2 -2 -1 -1 -1 -0 -0 -0 0 1 1 1 2 2 2 3 3 3 4
0 -1 0 1 -0 -0 -0 -0 -0 -0 0 0 0 -0 -0 -1 -1 -1 -2 -2 -2 -2 -2 -3 -2 -2 -2 -2 -2 -1 -1 -1 -1 -0 -0 0 1 1 1 2 2 2 3 3
-0 -1 -1 0 0 -0 -1 -1 -2 -2 -1 -0 -1 -1 -1 -2 -2 -2 -2 -2 -2 -3 -3 -3 -3 -3 -3 -3 -2 -2 -2 -1 -1 -1 -1 -0 -0 0 1 1 1 2 2 3
-1 -2 -2 -0 -1 -2 -2 -2 -2 -3 -2 -2 -2 -2 -1 -2 -2 -3 -3 -3 -3 -4 -4 -4 -4 -4 -3 -3 -3 -3 -2 -2 -2 -1 -1 -1 -1 -0 0 0 1 1 1 2
-1 -3 -3 -2 -1 -2 -2 -2 -3 -3 -3 -3 -3 -2 -2 -3 -4 -4 -4 -4 -4 -4 -4 -4 -4 -4 -4 -4 -4 -3 -3 -3 -2 -2 -2 -2 -1 -1 -1 -0 0 1 1 1
-2 -3 -3 -2 -2 -2 -3 -3 -3 -4 -4 -4 -3 -3 -3 -4 -4 -4 -4 -4 -5 -5 -5 -5 -5 -5 -5 -5 -5 -4 -4 -4 -3 -3 -3 -2 -2 -2 -1 -1 -1 -0 0 1
-3 -4 -3 -3 -2 -2 -3 -3 -3 -3 -4 -4 -4 -4 -4 -4 -4 -4 -5 -5 -5 -6 -6 -6 -6 -6 -6 -6 -5 -5 -5 -4 -4 -4 -3 -3 -3 -3 -2 -2 -1 -1 -0 0
-3 -4 -4 -3 -2 -3 -4 -5 -5 -5 -5 -5 -5 -5 -5 -5 -6 -6 -6 -6 -6 -7 -7 -7 -7 -7 -7 -7 -6 -6 -6 -5 -5 -5 -4 -4 -4 -3 -3 -3 -2 -2 -1 -1
-5 -5 -4 -4 -4 -5 -4 -4 -5 -5 -6 -6 -6 -6 -6 -6 -6 -6 -6 -7 -7 -7 -7 -7 -7 -7 -7 -7 -7 -6 -6 -6 -6 -5 -5 -5 -4 -4 -4 -3 -3 -2 -2 -1
-4 -5 -5 -4 -5 -4 -4 -5 -6 -6 -6 -6 -7 -6 -6 -6 -6 -6 -7 -7 -7 -8 -8 -8 -8 -7 -7 -7 -7 -7 -7 -6 -6 -6 -6 -5 -5 -5 -4 -4 -4 -3 -3 -2
-5 -5 -6 -5 -5 -5 -4 -6 -6 -6 -7 -6 -6 -7 -7 -7 -8 -8 -7 -8 -8 -8 -8 -8 -8 -8 -8 -8 -7 -7 -7 -7 -7 -7 -6 -6 -6 -5 -5 -5 -4 -4 -3 -3
-6 -6 -6 -6 -5 -5 -6 -6 -6 -6 -6 -6 -6 -7 -7 -8 -8 -8 -8 -8 -8 -8 -8 -8 -8 -8 -8 -8 -8 -8 -8 -7 -7 -7 -7 -7 -6 -6 -6 -5 -5 -4 -4 -4
-7 -7 -7 -6 -6 -6 -7 -7 -7 -7 -7 -7 -7 -7 -8 -8 -8 -8 -9 -9 -9 -9 -9 -9 -9 -9 -9 -9 -8 -8 -8 -8 -8 -7 -7 -7 -7 -6 -6 -6 -5 -5 -5 -5
-6 -6 -6 -6 -6 -6 -6 -7 -7 -7 -7 -7 -8 -8 -8 -9 -9 -9 -9 -9 -9 -9 -9 -9 -9 -9 -9 -9 -9 -9 -9 -8 -8 -8 -8 -7 -7 -7 -7 -6 -6 -6 -6 -5
-7 -7 -7 -7 -7 -6 -6 -6 -7 -7 -8 -8 -8 -8 -9 -9 -9 -9 -9 -10 -9 -9 -9 -9 -9 -9 -9 -9 -9 -9 -9 -9 -9 -8 -8 -8 -8 -7 -7 -7 -7 -7 -6 -6
-6 -8 -8 -8 -8 -7 -7 -7 -7 -8 -8 -8 -9 -9 -9 -10 -10 -10 -10 -10 -10 -10 -10 -10 -10 -10 -10 -10 -10 -10 -10 -9 -9 -9 -9 -8 -8 -8 -8 -7 -7 -7 -7 -6
-7 -8 -8 -8 -7 -8 -7 -7 -8 -8 -9 -9 -9 -9 -9 -10 -10 -10 -10 -10 -10 -10 -10 -10 -10 -10 -10 -10 -10 -10 -10 -10 -10 -9 -9 -9 -9 -9 -8 -8 -7 -7 -7 -7